This is the latest recevied weather packets stored in our database for station/object W7TRD. If no packets are shown the sender has not sent any weather packets the latest 10 day(s).
| Time | Temp. | Humidity | Pressure | Rain* | Wind** | Luminosity | Snow |
|---|---|---|---|---|---|---|---|
| 1777933710 | 23.33° C | 57% | 1012.2 hPa | 0 mm | - | 602 W/m² | - |
| 1777933106 | 23.33° C | 58% | 1012.4 hPa | 0 mm | - | 612 W/m² | - |
| 1777932499 | 22.22° C | 59% | 1012.4 hPa | 0 mm | - | 634 W/m² | - |
| 1777931893 | 22.78° C | 56% | 1012.7 hPa | 0 mm | - | 648 W/m² | - |
| 1777931589 | 21.67° C | 58% | 1012.6 hPa | 0 mm | - | 656 W/m² | - |
| 1777930679 | 22.22° C | 57% | 1012.8 hPa | 0 mm | - | 652 W/m² | - |
| 1777930072 | 22.78° C | 57% | 1012.8 hPa | 0 mm | - | 692 W/m² | - |
| 1777929768 | 21.67° C | 60% | 1012.9 hPa | 0 mm | - | 699 W/m² | - |
| 1777929466 | 21.67° C | 60% | 1013 hPa | 0 mm | - | 708 W/m² | - |
| 1777929162 | 21.67° C | 59% | 1013.2 hPa | 0 mm | - | 706 W/m² | - |
| 1777928860 | 21.11° C | 61% | 1013.2 hPa | 0 mm | - | 710 W/m² | - |
| 1777928557 | 21.11° C | 62% | 1013.5 hPa | 0 mm | - | 707 W/m² | - |
| 1777927047 | 20.56° C | 63% | 1013.6 hPa | 0 mm | - | 703 W/m² | - |
| 1777926744 | 20.56° C | 62% | 1013.7 hPa | 0 mm | - | 705 W/m² | - |
| 1777925535 | 20° C | 64% | 1013.8 hPa | 0 mm | - | 730 W/m² | - |
| 1777925233 | 19.44° C | 65% | 1014.1 hPa | 0 mm | - | 739 W/m² | - |
| 1777924321 | 20° C | 65% | 1014.1 hPa | 0 mm | - | 746 W/m² | - |
| 1777923411 | 18.89° C | 66% | 1014.1 hPa | 0 mm | - | 743 W/m² | - |
| 1777923109 | 18.89° C | 66% | 1014.1 hPa | 0 mm | - | 736 W/m² | - |
| 1777921594 | 18.89° C | 68% | 1014.5 hPa | 0 mm | - | 733 W/m² | - |
| 1777920988 | 18.33° C | 69% | 1014.4 hPa | 0 mm | - | 741 W/m² | - |
| 1777919168 | 17.78° C | 69% | 1014.5 hPa | 0 mm | - | 530 W/m² | - |
| 1777917051 | 16.11° C | 76% | 1014.5 hPa | 0 mm | - | 358 W/m² | - |
| 1777915840 | 15.56° C | 77% | 1014.7 hPa | 0 mm | - | 287 W/m² | - |
| 1777915536 | 15.56° C | 78% | 1014.7 hPa | 0 mm | - | 251 W/m² | - |
* Rain latest hour (hover to see other rain measurements)
** Current wind speed in m/s (hover to see current wind gust speed)